Tracking 19212 objects as of 17-Jul-2018
HD Live streaming from Space Station
objects crossing your sky now

FENGYUN 1C DEB

Track FENGYUN 1C DEB now!
10-day predictions


NORAD ID: 38165
Int'l Code: 1999-025ERN
Perigee: 787.4 km
Apogee: 835.0 km
Inclination: 99.1 °
Period: 101.0 minutes
Semi major axis: 7182 km
RCS: 0.006 m2 (small)
Launch date: May 10, 1999
Source: People's Republic of China (PRC)
Launch site: Taiyaun Space Center, China (TSC)

Note: This is SATELLITE DEBRIS
aabbcc
Your satellite tracking list
Your tracking list is empty




NASA's NSSDC Master Catalog

Two Line Element Set (TLE):
1 38165U 99025ERN 18197.19030307 +.00000740 +00000-0 +32599-3 0  9999
2 38165 099.0838 347.8203 0033150 188.0144 172.0509 14.26311189339394
Source of the keplerian elements: AFSPC